Погода в Поповке

Украина / Сумская область     50°29′50″N   35°27′15″E
темп.,
°C
ветер,
м/с
пор.,
м/с
влажн.,
%
обл.,
%
осадки,
мм/ч
давл.,
гПа
погр.,
м
28 июля, ср
ср2800:00+21юв33425 0.0 101845
03:00+20ююв354640 0.0 101764
06:00+19ююв234999 0.0 101751
09:00+27ю353493 0.0 1016478
12:00+31юз552698 0.0 10142253
15:00+33ююз5827100 0.0 10123253
18:00+30юз473711 0.4 10111223
21:00+20зсз138714 1.9 101251
29 июля, чт
чт2900:00+19зюз22870 1.3 101225
03:00+19з23924 1.3 101240
06:00+20ююз228997 0.0 101259
09:00+24зюз237044 0.0 1012328
12:00+30зюз343920 0.0 10112212
15:00+33з452874 0.0 10093225
18:00+30сз343542 0.0 10081017
21:00+25юз22487 0.0 100815
30 июля, пт
пт3000:00+21юз367421 0.0 1009126
03:00+20юз388366 0.0 1008173
06:00+20ююз368398 0.0 1008196
09:00+23зюз337870 1.6 1008487
12:00+29з4551100 0.0 10081365
15:00+31з5541100 0.0 10072378
18:00+27ссз475198 0.2 1007805
21:00+24с2361100 0.2 100966
31 июля, сб
сб3100:00+22ссв117147 0.0 101019
03:00+22всв116937 0.0 101011
06:00+20юз01760 0.0 101011
09:00+27зсз114810 0.0 1011563
12:00+30з33315 0.0 10112415
15:00+32з33270 0.0 10102771
18:00+32сз332726 0.0 10092682
21:00+25св22410 0.0 101011
1 августа, вс
вс100:00+22вюв22480 0.0 101016
03:00+21ююв22560 0.0 101011
06:00+21ю22550 0.0 101033
09:00+29ююз473426 0.0 1010712
12:00+32юз5628100 0.0 10092420
15:00+34зюз6627100 0.0 10092749
18:00+33зюз453139 0.0 10082495
21:00+27ссз365099 0.0 1009190